GW5754 Weather Reports


time (UTC)temp
C
wind
direction
speed
KPH
gust
KPH
rain 1hr
cm
rain 24hr
cm
rain mn
cm
humidity
%
barometer
mb
20260503185114 26 270 4.8 4.8 0.00 0.00 0.00 47 1020.0
20260503184614 26 203 0.0 1.6 0.00 0.00 0.00 45 1020.0
20260503184115 26 270 3.2 6.4 0.00 0.00 0.00 46 1020.0
20260503183614 25 68 4.8 6.4 0.00 0.00 0.00 47 1020.0
20260503183114 25 45 1.6 3.2 0.00 0.00 0.00 47 1020.0
20260503182614 25 158 0.0 1.6 0.00 0.00 0.00 47 1020.0
20260503182114 25 23 3.2 3.2 0.00 0.00 0.00 48 1020.0
20260503181614 25 23 3.2 3.2 0.00 0.00 0.00 49 1020.0
20260503181116 25 0 0.0 1.6 0.00 0.00 0.00 50 1020.0
20260503180614 25 338 1.6 3.2 0.00 0.00 0.00 48 1020.0
20260503180114 25 293 1.6 3.2 0.00 0.00 0.00 47 1020.0
20260503175614 24 248 3.2 3.2 0.00 0.00 0.00 46 1020.0
20260503175114 24 45 0.0 0.0 0.00 0.00 0.00 47 1020.0
20260503174615 24 338 1.6 3.2 0.00 0.00 0.00 48 1020.0
20260503174114 23 45 4.8 4.8 0.00 0.00 0.00 48 1020.0
20260503173615 24 338 3.2 3.2 0.00 0.00 0.00 46 1020.0
20260503173115 24 90 1.6 3.2 0.00 0.00 0.00 47 1020.0
20260503172614 23 113 1.6 3.2 0.00 0.00 0.00 47 1020.0
20260503172115 23 90 0.0 1.6 0.00 0.00 0.00 46 1020.0
20260503171614 22 68 0.0 1.6 0.00 0.00 0.00 47 1021.0
20260503171115 22 135 0.0 1.6 0.00 0.00 0.00 49 1020.0
20260503170615 23 90 0.0 3.2 0.00 0.00 0.00 48 1020.0
20260503170114 22 90 0.0 1.6 0.00 0.00 0.00 51 1020.0
20260503160115 18 0 1.6 3.2 0.00 0.00 0.00 59 1021.0
20260503150615 16 158 4.8 8.0 0.00 0.00 0.00 67 1021.0
20260503150114 15 45 1.6 3.2 0.00 0.00 0.00 74 1021.0
20260503140115 14 113 3.2 3.2 0.00 0.00 0.00 75 1021.0
20260503131115 12 135 1.6 3.2 0.00 0.00 0.00 82 1021.0
20260503130114 12 135 0.0 0.0 0.00 0.00 0.00 85 1020.0
20260503120114 13 113 0.0 3.2 0.00 0.00 0.00 84 1020.0
20260503100116 11 315 0.0 0.0 0.00 0.00 0.00 97 1021.0
20260503090114 11 113 0.0 0.0 0.00 0.00 0.00 96 1022.0
20260503081614 12 0 0.0 0.0 0.00 0.00 0.00 96 1021.0
20260503080114 12 338 0.0 0.0 0.00 0.00 0.00 95 1021.0
20260503072614 13 158 0.0 0.0 0.00 0.00 0.00 95 1021.0
20260503072114 13 180 1.6 1.6 0.00 0.00 0.00 95 1021.0
20260503071615 13 158 0.0 0.0 0.00 0.00 0.00 94 1022.0
20260503071114 13 113 0.0 0.0 0.00 0.00 0.00 94 1021.0
20260503070615 13 113 0.0 0.0 0.00 0.00 0.00 93 1022.0
20260503070114 13 113 0.0 0.0 0.00 0.00 0.00 94 1021.0
20260503060114 14 68 0.0 0.0 0.00 0.00 0.00 90 1022.0
20260503055114 15 113 0.0 0.0 0.00 0.00 0.00 89 1021.0
20260503054614 15 113 0.0 0.0 0.00 0.00 0.00 88 1021.0
20260503054114 15 45 0.0 0.0 0.00 0.00 0.00 88 1021.0
20260503053615 15 113 0.0 0.0 0.00 0.00 0.00 88 1021.0
20260503052629 15 135 0.0 0.0 0.00 0.00 0.00 87 1021.0
20260503052114 15 113 0.0 0.0 0.00 0.00 0.00 86 1021.0
20260503051614 16 113 0.0 0.0 0.00 0.00 0.00 84 1021.0
20260503051114 16 113 1.6 1.6 0.00 0.00 0.00 84 1021.0
20260503050614 16 158 0.0 0.0 0.00 0.00 0.00 84 1021.0
20260503050114 16 225 0.0 0.0 0.00 0.00 0.00 84 1021.0
20260503045615 16 135 0.0 0.0 0.00 0.00 0.00 83 1021.0
20260503045114 16 113 0.0 0.0 0.00 0.00 0.00 82 1021.0
20260503044615 17 113 1.6 3.2 0.00 0.00 0.00 80 1021.0
20260503044115 17 113 0.0 0.0 0.00 0.00 0.00 81 1021.0
20260503043615 17 113 0.0 0.0 0.00 0.00 0.00 81 1021.0
20260503043114 17 158 0.0 0.0 0.00 0.00 0.00 80 1021.0
20260503042614 17 135 4.8 4.8 0.00 0.00 0.00 80 1021.0
20260503042114 17 113 1.6 1.6 0.00 0.00 0.00 80 1021.0
20260503041614 17 135 1.6 3.2 0.00 0.00 0.00 80 1021.0
20260503041114 17 135 1.6 3.2 0.00 0.00 0.00 80 1021.0
20260503040615 17 113 0.0 0.0 0.00 0.00 0.00 80 1021.0
20260503040115 18 90 0.0 0.0 0.00 0.00 0.00 79 1020.0
20260503035614 18 90 0.0 0.0 0.00 0.00 0.00 78 1020.0
20260503035115 18 113 0.0 1.6 0.00 0.00 0.00 77 1020.0
20260503034615 18 248 0.0 0.0 0.00 0.00 0.00 76 1020.0
20260503034114 19 90 1.6 3.2 0.00 0.00 0.00 71 1020.0
20260503033614 20 158 0.0 0.0 0.00 0.00 0.00 69 1020.0
20260503033115 20 158 0.0 0.0 0.00 0.00 0.00 68 1020.0
20260503032614 20 113 1.6 3.2 0.00 0.00 0.00 67 1020.0
20260503032115 20 180 0.0 1.6 0.00 0.00 0.00 67 1020.0
20260503031615 21 135 0.0 0.0 0.00 0.00 0.00 65 1020.0
20260503031116 22 180 1.6 3.2 0.00 0.00 0.00 64 1020.0
20260503030614 22 135 0.0 0.0 0.00 0.00 0.00 63 1020.0
20260503030114 22 113 1.6 3.2 0.00 0.00 0.00 61 1020.0
20260503025614 22 90 0.0 1.6 0.00 0.00 0.00 60 1020.0
20260503025114 23 23 1.6 3.2 0.00 0.00 0.00 57 1019.0
20260503024614 23 113 0.0 0.0 0.00 0.00 0.00 60 1019.0
20260503024114 23 203 1.6 3.2 0.00 0.00 0.00 57 1019.0
20260503023614 24 180 3.2 4.8 0.00 0.00 0.00 55 1019.0
20260503023114 24 158 0.0 1.6 0.00 0.00 0.00 55 1019.0
20260503022615 25 225 1.6 3.2 0.00 0.00 0.00 54 1020.0
20260503022115 26 135 0.0 0.0 0.00 0.00 0.00 52 1020.0
20260503021614 27 203 0.0 0.0 0.00 0.00 0.00 50 1019.0
20260503021114 27 158 0.0 0.0 0.00 0.00 0.00 46 1019.0
20260503020614 27 135 0.0 0.0 0.00 0.00 0.00 47 1019.0
20260503020114 27 158 0.0 0.0 0.00 0.00 0.00 47 1019.0
20260503015615 27 158 0.0 0.0 0.00 0.00 0.00 48 1020.0
20260503015114 27 180 0.0 0.0 0.00 0.00 0.00 50 1019.0
20260503014614 27 135 0.0 0.0 0.00 0.00 0.00 47 1019.0
20260503014114 27 135 1.6 3.2 0.00 0.00 0.00 48 1019.0
20260503013614 27 270 1.6 1.6 0.00 0.00 0.00 48 1019.0
20260503013114 27 180 1.6 3.2 0.00 0.00 0.00 45 1019.0
20260503012614 27 225 3.2 3.2 0.00 0.00 0.00 44 1019.0
20260503012114 27 113 1.6 3.2 0.00 0.00 0.00 45 1019.0
20260503011615 27 135 4.8 4.8 0.00 0.00 0.00 44 1019.0
20260503011114 28 293 0.0 1.6 0.00 0.00 0.00 48 1019.0
20260503010614 27 158 1.6 3.2 0.00 0.00 0.00 45 1019.0
20260503010114 27 270 3.2 3.2 0.00 0.00 0.00 46 1019.0
20260503005614 28 270 1.6 3.2 0.00 0.00 0.00 44 1019.0
20260503005114 27 293 3.2 3.2 0.00 0.00 0.00 46 1019.0
20260503004614 27 270 4.8 4.8 0.00 0.00 0.00 48 1019.0
20260503004114 27 158 8.0 8.0 0.00 0.00 0.00 46 1019.0
20260503003614 26 203 4.8 6.4 0.00 0.00 0.00 47 1019.0
20260503003114 26 225 11.3 11.3 0.00 0.00 0.00 47 1019.0
20260503002614 27 248 8.0 9.7 0.00 0.00 0.00 46 1019.0